Location: Pine Mountain Observatory
(43.7910°N, 120.9377°W)
Time: 03:19:44
(UTC-07:00)

APEX - Visible Passes

Search period start: 30 September 2014 00:00
Search period end: 10 October 2014 00:00
Orbit: 340 x 1400 km, 69.9° (Epoch: 29 September)

Date Brightness Start Highest point End Pass type
(mag) Time Alt. Az. Time Alt. Az. Time Alt. Az.
03 Oct 6.9 21:38:42 10° SSW 21:39:22 13° SSW 21:39:22 13° SSW visible
04 Oct 4.1 06:37:12 10° NNW 06:40:17 39° ENE 06:42:57 10° SE visible
04 Oct 6.3 19:50:36 10° SE 19:52:25 14° SE 19:52:25 14° SE visible
04 Oct 6.1 21:31:52 10° SSW 21:34:57 26° SSW 21:34:57 26° SSW visible
05 Oct 3.7 06:30:13 10° NNW 06:33:19 47° ENE 06:36:01 10° SE visible
05 Oct 5.8 19:43:15 10° SE 19:47:46 18° ESE 19:47:50 18° ESE visible
05 Oct 5.0 21:25:00 10° SSW 21:30:21 49° SSW 21:30:21 49° SSW visible
06 Oct 3.2 06:23:11 10° NNW 06:26:17 56° ENE 06:29:00 10° SE visible
06 Oct 5.7 19:35:54 10° SSE 19:40:43 20° ESE 19:42:56 16° E visible
06 Oct 4.4 21:18:06 10° SSW 21:25:17 77° WNW 21:25:26 77° NW visible
06 Oct 7.0 23:07:00 10° W 23:07:55 12° WNW 23:07:55 12° WNW visible
07 Oct 2.8 06:16:05 10° NNW 06:19:11 69° ENE 06:21:55 10° SSE visible
07 Oct 5.6 19:28:32 10° SSE 19:33:37 21° ESE 19:37:36 11° ENE visible
07 Oct 4.5 21:11:09 10° SSW 21:18:13 71° WNW 21:20:03 44° N visible
07 Oct 6.9 23:00:31 10° WNW 23:02:31 13° WNW 23:02:31 13° WNW visible
08 Oct 2.5 06:08:57 10° NNW 06:12:01 84° ENE 06:14:45 10° SSE visible
08 Oct 5.5 19:21:09 10° SSE 19:26:28 23° ESE 19:30:53 10° ENE visible
08 Oct 4.7 21:04:09 10° SW 21:11:05 64° WNW 21:14:13 26° NNE visible
08 Oct 6.9 22:54:05 10° WNW 22:56:23 12° NW 22:56:38 12° NW visible
09 Oct 2.3 06:01:46 10° NNW 06:04:47 80° WSW 06:07:30 10° SSE visible
09 Oct 5.4 19:13:45 10° SSE 19:19:15 25° ESE 19:23:46 10° NE visible
09 Oct 4.8 20:57:06 10° SW 21:03:53 58° WNW 21:07:57 17° NNE visible
09 Oct 7.0 22:47:49 10° WNW 22:49:14 11° NW 22:50:21 10° NNW visible
